Location: Newark
(43.5288°N, 5.4471°E)
Time: 22:33:29
(UTC+00:00)

OTV 5 (USA 277) - Visible Passes

Search period start: 22 October 2019 00:00
Search period end: 01 November 2019 00:00
Orbit: 310 x 324 km, 54.5° (Epoch: 17 October)

Date Brightness Start Highest point End Pass type
(mag) Time Alt. Az. Time Alt. Az. Time Alt. Az.
22 Oct ? 04:03:45 10° SSE 04:03:45 10° SSE 04:03:46 10° SSE visible
27 Oct ? 18:23:21 10° SSW 18:24:03 15° SSW 18:24:03 15° SSW visible
28 Oct ? 18:37:38 10° SW 18:38:41 21° WSW 18:38:41 21° WSW visible
29 Oct ? 17:18:38 10° S 17:20:47 21° SE 17:22:16 14° E visible
29 Oct ? 18:52:28 10° W 18:53:11 15° W 18:53:11 15° W visible
30 Oct ? 17:32:31 10° SW 17:35:12 59° SE 17:36:39 23° ENE visible
31 Oct ? 17:47:06 10° WSW 17:49:46 48° NW 17:50:56 27° NNE visible
